| time (UTC) | temp C | wind direction | speed KPH | gust KPH | rain 1hr cm | rain 24hr cm | rain mn cm | humidity % | barometer mb |
| 20260507041023 | 8 | 5 | 1.6 | 4.8 | 0.00 | 1.75 | 0.00 | 92 | 1013.0 |
| 20260507040022 | 8 | 331 | 3.2 | 8.0 | 0.00 | 1.80 | 0.00 | 92 | 1012.9 |
| 20260507035044 | 8 | 73 | 1.6 | 6.4 | 0.00 | 1.85 | 0.00 | 92 | 1012.9 |
| 20260507034023 | 8 | 79 | 1.6 | 4.8 | 0.00 | 1.91 | 0.00 | 92 | 1012.9 |
| 20260507033024 | 8 | 86 | 1.6 | 4.8 | 0.00 | 1.96 | 0.00 | 91 | 1012.8 |
| 20260507032023 | 8 | 192 | 3.2 | 6.4 | 0.00 | 1.98 | 0.00 | 91 | 1012.8 |
| 20260507031024 | 8 | 190 | 1.6 | 6.4 | 0.00 | 2.03 | 0.00 | 90 | 1012.7 |
| 20260507030023 | 8 | 344 | 3.2 | 6.4 | 0.00 | 2.06 | 0.00 | 90 | 1012.6 |
| 20260507025022 | 8 | 5 | 1.6 | 8.0 | 0.00 | 2.11 | 0.00 | 90 | 1012.5 |
| 20260507024023 | 8 | 100 | 1.6 | 4.8 | 0.00 | 2.16 | 0.00 | 91 | 1012.5 |
| 20260507023022 | 8 | 36 | 1.6 | 6.4 | 0.00 | 2.26 | 0.00 | 92 | 1012.5 |
| 20260507022023 | 8 | 133 | 3.2 | 8.0 | 0.00 | 2.34 | 0.00 | 92 | 1012.5 |
| 20260507021044 | 8 | 35 | 3.2 | 6.4 | 0.00 | 2.41 | 0.00 | 91 | 1012.4 |
| 20260507020024 | 8 | 155 | 3.2 | 8.0 | 0.00 | 2.49 | 0.00 | 92 | 1012.4 |
| 20260507015023 | 8 | 36 | 1.6 | 6.4 | 0.00 | 2.54 | 0.00 | 92 | 1012.3 |
| 20260507014024 | 8 | 48 | 1.6 | 6.4 | 0.00 | 2.59 | 0.00 | 92 | 1012.3 |
| 20260507013023 | 8 | 175 | 1.6 | 4.8 | 0.00 | 2.62 | 0.00 | 92 | 1012.1 |
| 20260507012022 | 8 | 97 | 1.6 | 6.4 | 0.00 | 2.67 | 0.00 | 92 | 1012.1 |
| 20260507011023 | 8 | 262 | 1.6 | 4.8 | 0.00 | 2.69 | 0.00 | 93 | 1012.1 |
| 20260507010022 | 8 | 183 | 0.0 | 3.2 | 0.00 | 2.72 | 0.00 | 93 | 1012.0 |
| 20260507005024 | 8 | 243 | 1.6 | 3.2 | 0.00 | 2.77 | 0.00 | 93 | 1012.0 |
| 20260507004102 | 8 | 123 | 0.0 | 3.2 | 0.00 | 2.82 | 0.00 | 93 | 1012.0 |
| 20260507003024 | 8 | 24 | 1.6 | 4.8 | 0.00 | 2.84 | 0.00 | 93 | 1011.9 |
| 20260507002023 | 8 | 88 | 1.6 | 4.8 | 0.00 | 2.90 | 0.00 | 93 | 1011.9 |
| 20260507001022 | 8 | 167 | 1.6 | 4.8 | 0.00 | 2.95 | 0.00 | 92 | 1011.9 |
| 20260506235043 | 8 | 12 | 1.6 | 6.4 | 0.00 | 3.07 | 0.00 | 92 | 1011.8 |
| 20260506234023 | 8 | 334 | 1.6 | 4.8 | 0.00 | 3.10 | 0.00 | 92 | 1011.9 |
| 20260506233022 | 8 | 124 | 3.2 | 6.4 | 0.00 | 3.15 | 0.00 | 92 | 1011.8 |
| 20260506232023 | 8 | 256 | 1.6 | 4.8 | 0.00 | 3.17 | 0.00 | 92 | 1011.6 |
| 20260506231022 | 8 | 332 | 3.2 | 4.8 | 0.00 | 3.20 | 0.00 | 92 | 1011.7 |
| 20260506230025 | 8 | 94 | 1.6 | 4.8 | 0.00 | 3.25 | 0.00 | 92 | 1011.6 |
| 20260506225022 | 8 | 315 | 1.6 | 6.4 | 0.00 | 3.28 | 0.00 | 92 | 1011.6 |
| 20260506224025 | 8 | 207 | 1.6 | 6.4 | 0.00 | 3.30 | 0.00 | 92 | 1011.5 |
| 20260506223024 | 8 | 121 | 1.6 | 6.4 | 0.00 | 3.33 | 0.00 | 92 | 1011.5 |
| 20260506222025 | 8 | 187 | 3.2 | 8.0 | 0.00 | 3.38 | 0.00 | 92 | 1011.5 |
| 20260506221023 | 8 | 225 | 1.6 | 8.0 | 0.00 | 3.40 | 0.00 | 92 | 1011.4 |
| 20260506220022 | 8 | 337 | 3.2 | 8.0 | 0.00 | 3.43 | 3.43 | 92 | 1011.3 |
| 20260506215024 | 8 | 173 | 3.2 | 8.0 | 0.00 | 3.43 | 3.43 | 91 | 1011.4 |
| 20260506214042 | 9 | 309 | 3.2 | 6.4 | 0.00 | 3.45 | 3.43 | 93 | 1011.4 |
| 20260506213043 | 9 | 171 | 1.6 | 6.4 | 0.00 | 3.48 | 3.43 | 93 | 1011.3 |
| 20260506212022 | 9 | 92 | 3.2 | 8.0 | 0.00 | 3.48 | 3.43 | 93 | 1011.3 |
| 20260506211027 | 9 | 340 | 3.2 | 11.3 | 0.00 | 3.48 | 3.43 | 93 | 1011.2 |
| 20260506210024 | 9 | 204 | 3.2 | 8.0 | 0.00 | 3.51 | 3.43 | 93 | 1011.2 |
| 20260506205023 | 9 | 15 | 3.2 | 6.4 | 0.00 | 3.51 | 3.43 | 93 | 1011.0 |
| 20260506204022 | 9 | 212 | 3.2 | 9.7 | 0.00 | 3.51 | 3.43 | 92 | 1011.1 |
| 20260506203024 | 9 | 210 | 3.2 | 6.4 | 0.00 | 3.51 | 3.43 | 93 | 1011.0 |
| 20260506202024 | 9 | 30 | 4.8 | 9.7 | 0.00 | 3.51 | 3.43 | 93 | 1011.0 |
| 20260506201024 | 9 | 95 | 4.8 | 8.0 | 0.00 | 3.51 | 3.43 | 92 | 1011.0 |
| 20260506200023 | 9 | 70 | 3.2 | 8.0 | 0.00 | 3.51 | 3.43 | 92 | 1010.8 |
| 20260506195044 | 9 | 123 | 3.2 | 8.0 | 0.00 | 3.51 | 3.43 | 92 | 1010.7 |
| 20260506194024 | 9 | 50 | 1.6 | 8.0 | 0.00 | 3.51 | 3.43 | 91 | 1010.7 |
| 20260506193045 | 9 | 16 | 4.8 | 11.3 | 0.00 | 3.51 | 3.43 | 91 | 1010.6 |
| 20260506192024 | 9 | 2 | 4.8 | 9.7 | 0.00 | 3.51 | 3.43 | 92 | 1010.6 |
| 20260506191024 | 9 | 15 | 4.8 | 9.7 | 0.00 | 3.51 | 3.43 | 92 | 1010.4 |
| 20260506190022 | 9 | 345 | 4.8 | 14.5 | 0.00 | 3.51 | 3.43 | 92 | 1010.2 |
| 20260506185023 | 9 | 83 | 4.8 | 11.3 | 0.00 | 3.51 | 3.43 | 93 | 1010.2 |
| 20260506184022 | 9 | 96 | 3.2 | 9.7 | 0.00 | 3.51 | 3.43 | 93 | 1010.0 |
| 20260506183042 | 10 | 68 | 4.8 | 9.7 | 0.00 | 3.51 | 3.43 | 93 | 1010.0 |
| 20260506182024 | 10 | 134 | 1.6 | 6.4 | 0.00 | 3.51 | 3.43 | 93 | 1009.7 |
| 20260506181022 | 10 | 91 | 3.2 | 8.0 | 0.00 | 3.51 | 3.43 | 93 | 1009.7 |
| 20260506180023 | 10 | 108 | 1.6 | 8.0 | 0.00 | 3.51 | 3.43 | 93 | 1009.6 |
| 20260506175022 | 10 | 42 | 3.2 | 8.0 | 0.00 | 3.51 | 3.43 | 93 | 1009.4 |
| 20260506174043 | 10 | 93 | 1.6 | 4.8 | 0.03 | 3.51 | 3.43 | 93 | 1009.4 |
| 20260506173042 | 10 | 61 | 1.6 | 6.4 | 0.03 | 3.51 | 3.43 | 93 | 1009.2 |
| 20260506172023 | 10 | 67 | 4.8 | 9.7 | 0.03 | 3.51 | 3.43 | 93 | 1009.2 |
| 20260506171027 | 10 | 65 | 3.2 | 9.7 | 0.05 | 3.51 | 3.43 | 93 | 1009.1 |
| 20260506170022 | 10 | 52 | 4.8 | 9.7 | 0.05 | 3.48 | 3.40 | 93 | 1009.1 |
| 20260506165022 | 10 | 53 | 3.2 | 11.3 | 0.05 | 3.48 | 3.40 | 93 | 1009.0 |
| 20260506164021 | 10 | 49 | 3.2 | 9.7 | 0.05 | 3.48 | 3.40 | 92 | 1008.9 |
| 20260506163022 | 10 | 65 | 3.2 | 6.4 | 0.05 | 3.48 | 3.40 | 92 | 1008.9 |
| 20260506162021 | 10 | 98 | 3.2 | 8.0 | 0.05 | 3.48 | 3.40 | 92 | 1008.9 |
| 20260506161021 | 10 | 42 | 3.2 | 6.4 | 0.03 | 3.45 | 3.38 | 92 | 1008.8 |
| 20260506160022 | 10 | 132 | 1.6 | 6.4 | 0.03 | 3.45 | 3.38 | 92 | 1008.8 |
| 20260506155021 | 10 | 230 | 1.6 | 4.8 | 0.00 | 3.43 | 3.35 | 91 | 1008.8 |
| 20260506154022 | 10 | 350 | 1.6 | 6.4 | 0.00 | 3.43 | 3.35 | 90 | 1008.8 |
| 20260506153021 | 10 | 71 | 1.6 | 6.4 | 0.00 | 3.43 | 3.35 | 91 | 1008.8 |
| 20260506152022 | 10 | 49 | 1.6 | 8.0 | 0.00 | 3.43 | 3.35 | 91 | 1008.7 |
| 20260506151041 | 10 | 95 | 3.2 | 8.0 | 0.00 | 3.43 | 3.35 | 91 | 1008.7 |
| 20260506150026 | 10 | 125 | 3.2 | 8.0 | 0.00 | 3.43 | 3.35 | 90 | 1008.6 |
| 20260506145023 | 10 | 95 | 3.2 | 11.3 | 0.00 | 3.43 | 3.35 | 89 | 1008.4 |
| 20260506144042 | 10 | 48 | 3.2 | 8.0 | 0.00 | 3.43 | 3.35 | 90 | 1008.4 |
| 20260506143021 | 10 | 40 | 4.8 | 12.9 | 0.00 | 3.43 | 3.35 | 90 | 1008.5 |
| 20260506142023 | 10 | 22 | 3.2 | 11.3 | 0.00 | 3.43 | 3.35 | 90 | 1008.5 |
| 20260506141021 | 10 | 64 | 6.4 | 16.1 | 0.00 | 3.43 | 3.35 | 91 | 1008.5 |
| 20260506140023 | 10 | 142 | 3.2 | 8.0 | 0.00 | 3.43 | 3.35 | 90 | 1008.4 |
| 20260506135021 | 10 | 28 | 3.2 | 9.7 | 0.03 | 3.43 | 3.35 | 90 | 1008.4 |
| 20260506134051 | 10 | 65 | 4.8 | 14.5 | 0.03 | 3.43 | 3.35 | 91 | 1008.3 |
| 20260506133022 | 10 | 288 | 3.2 | 6.4 | 0.03 | 3.43 | 3.35 | 90 | 1008.4 |
| 20260506132021 | 10 | 41 | 3.2 | 11.3 | 0.03 | 3.43 | 3.35 | 90 | 1008.2 |
| 20260506131022 | 10 | 53 | 6.4 | 19.3 | 0.05 | 3.43 | 3.35 | 89 | 1008.2 |
| 20260506130021 | 10 | 55 | 3.2 | 8.0 | 0.05 | 3.43 | 3.35 | 91 | 1008.2 |
| 20260506125022 | 10 | 90 | 3.2 | 6.4 | 0.05 | 3.40 | 3.33 | 90 | 1008.1 |
| 20260506124043 | 10 | 14 | 4.8 | 14.5 | 0.08 | 3.40 | 3.33 | 90 | 1008.1 |
| 20260506123021 | 10 | 23 | 4.8 | 9.7 | 0.08 | 3.40 | 3.33 | 90 | 1008.0 |
| 20260506122022 | 10 | 311 | 3.2 | 8.0 | 0.08 | 3.40 | 3.33 | 91 | 1008.1 |
| 20260506121021 | 10 | 76 | 3.2 | 6.4 | 0.08 | 3.38 | 3.30 | 91 | 1008.0 |
| 20260506120022 | 10 | 187 | 1.6 | 6.4 | 0.10 | 3.38 | 3.30 | 90 | 1007.9 |
| 20260506115043 | 10 | 68 | 3.2 | 8.0 | 0.10 | 3.35 | 3.28 | 90 | 1007.7 |
| 20260506114041 | 10 | 217 | 3.2 | 9.7 | 0.13 | 3.35 | 3.25 | 91 | 1007.8 |
| 20260506113022 | 10 | 145 | 1.6 | 8.0 | 0.18 | 3.33 | 3.25 | 90 | 1007.8 |
| 20260506112022 | 10 | 74 | 3.2 | 12.9 | 0.20 | 3.33 | 3.25 | 90 | 1007.7 |
| 20260506111023 | 10 | 137 | 3.2 | 9.7 | 0.23 | 3.30 | 3.23 | 90 | 1007.6 |
| 20260506110022 | 10 | 217 | 1.6 | 8.0 | 0.23 | 3.28 | 3.20 | 90 | 1007.7 |
| 20260506105021 | 10 | 40 | 3.2 | 12.9 | 0.25 | 3.25 | 3.17 | 91 | 1007.6 |
| 20260506104022 | 10 | 58 | 1.6 | 9.7 | 0.23 | 3.20 | 3.12 | 91 | 1007.6 |
| 20260506103022 | 10 | 11 | 3.2 | 9.7 | 0.20 | 3.15 | 3.07 | 91 | 1007.5 |
| 20260506102022 | 10 | 64 | 3.2 | 6.4 | 0.15 | 3.10 | 3.02 | 91 | 1007.4 |
| 20260506101021 | 10 | 85 | 3.2 | 9.7 | 0.13 | 3.07 | 3.00 | 90 | 1007.3 |
| 20260506100044 | 10 | 71 | 3.2 | 9.7 | 0.10 | 3.05 | 2.97 | 92 | 1007.2 |
| 20260506095021 | 10 | 40 | 3.2 | 14.5 | 0.05 | 3.00 | 2.92 | 91 | 1007.2 |
| 20260506094042 | 10 | 31 | 3.2 | 8.0 | 0.05 | 3.00 | 2.90 | 92 | 1007.0 |
| 20260506093021 | 10 | 56 | 4.8 | 11.3 | 0.05 | 2.97 | 2.87 | 92 | 1007.0 |
| 20260506092025 | 10 | 36 | 3.2 | 9.7 | 0.08 | 2.97 | 2.87 | 92 | 1006.9 |
| 20260506091022 | 10 | 130 | 1.6 | 6.4 | 0.10 | 2.97 | 2.87 | 93 | 1006.7 |
| 20260506090022 | 10 | 75 | 3.2 | 6.4 | 0.13 | 2.97 | 2.87 | 92 | 1006.7 |
| 20260506085023 | 10 | 37 | 3.2 | 9.7 | 0.20 | 3.00 | 2.87 | 92 | 1006.5 |
| 20260506084022 | 10 | 42 | 4.8 | 9.7 | 0.28 | 3.00 | 2.84 | 93 | 1006.5 |
| 20260506083045 | 10 | 55 | 4.8 | 14.5 | 0.33 | 3.00 | 2.82 | 93 | 1006.5 |
| 20260506082022 | 10 | 52 | 4.8 | 11.3 | 0.36 | 2.97 | 2.82 | 93 | 1006.5 |
| 20260506081021 | 10 | 46 | 3.2 | 11.3 | 0.36 | 2.95 | 2.77 | 93 | 1006.5 |
| 20260506073023 | 10 | 9 | 1.6 | 4.8 | 0.25 | 2.67 | 2.49 | 94 | 1006.4 |
| 20260506072023 | 10 | 134 | 1.6 | 4.8 | 0.25 | 2.62 | 2.46 | 94 | 1006.4 |
| 20260506071023 | 10 | 81 | 1.6 | 9.7 | 0.28 | 2.59 | 2.44 | 94 | 1006.3 |
| 20260506062021 | 10 | 17 | 1.6 | 9.7 | 0.23 | 2.34 | 2.18 | 94 | 1006.2 |
| 20260506061022 | 10 | 44 | 3.2 | 9.7 | 0.23 | 2.29 | 2.13 | 94 | 1006.1 |
| 20260506051047 | 10 | 101 | 1.6 | 6.4 | 0.25 | 2.08 | 1.93 | 94 | 1005.9 |
| 20260506045023 | 10 | 79 | 3.2 | 6.4 | 0.25 | 2.03 | 1.83 | 94 | 1005.8 |
| 20260506044023 | 10 | 44 | 3.2 | 6.4 | 0.28 | 2.11 | 1.78 | 94 | 1005.9 |
| 20260506043023 | 10 | 70 | 3.2 | 11.3 | 0.28 | 2.13 | 1.75 | 94 | 1005.8 |
| 20260506042022 | 10 | 80 | 3.2 | 12.9 | 0.25 | 2.13 | 1.70 | 94 | 1005.8 |